Regional Weather Roundup
Issued by NWS

Home | Current Version | Previous Version | Graphics & Text | Print | Product List | Glossary On
Versions: 1 2 3 4 5 6 7 8 9 10 11 12 13 14 15 16 17 18 19 20 21 22 23 24 25 26 27 28 29 30 31 32 33 34 35 36 37 38 39 40 41 42 43 44 45 46 47 48 49 50
000
ASUS43 KIND 271959
RWRIN

WEATHER ROUNDUP FOR INDIANA
NATIONAL WEATHER SERVICE INDIANAPOLIS IN
300 PM EST THU NOV 27 2014

NOTE: "FAIR" INDICATES FEW OR NO CLOUDS BELOW 12,000 FEET WITH NO
SIGNIFICANT WEATHER AND/OR OBSTRUCTIONS TO VISIBILITY.

* - STATION DOES NOT REPORT WEATHER SUCH AS PRECIPITATION OR FOG.

+ - STATION NOT QUALITY CONTROLLED BY THE NATIONAL WEATHER SERVICE.
    USE DATA WITH CAUTION...ESPECIALLY DEWPOINT AND RELATIVE
    HUMIDITY OBSERVATIONS.

INZ001>003-010>013-019-020-272100-
NORTHWEST INDIANA

CITY           SKY/WX    TMP DP  RH WIND       PRES   REMARKS
GARY /AIRPORT/ CLOUDY    28  18  64 NW14      30.35R WCI  17
VALPARAISO     NOT AVBL

$$

LMZ046-743>745-272100-
SOUTHERN LAKE MICHIGAN

STATION/POSITION TIME  TEMP WIND        PRES
                       AIR  DIR/SP/G
                 (UTC) (F)  (DEG/KT/KT) (MB)
MICHIGAN CITY    1900   28  280/ 20/ 25   N/A

$$

INZ004-005-014>016-021>024-272100-
NORTH CENTRAL INDIANA

CITY           SKY/WX    TMP DP  RH WIND       PRES   REMARKS
GOSHEN         LGT SNOW  30  25  81 W16       30.24R WCI  19
SOUTH BEND     FLURRIES  29  23  78 W12       30.27R WCI  19

$$

INZ006>009-017-018-025>027-272100-
NORTHEAST INDIANA

CITY           SKY/WX    TMP DP  RH WIND       PRES   REMARKS
ANGOLA *+      PTSUNNY   32  18  55 NW16      30.19R WCI  21
FORT WAYNE     FLURRIES  31  25  78 W16G25    30.25R WCI  20

$$

INZ028-029-035-036-043>045-051>053-272100-
WEST CENTRAL INDIANA

CITY           SKY/WX    TMP DP  RH WIND       PRES   REMARKS
GREENCASTLE +  CLOUDY    28  19  69 W8        30.35S WCI  20
LAFAYETTE      CLOUDY    27  19  72 NW14      30.35R WCI  16
TERRE HAUTE    FLURRIES  29  21  72 NW9       30.38S WCI  20

$$

INZ030>032-037>040-046>048-054>057-064-065-272100-
CENTRAL INDIANA

CITY           SKY/WX    TMP DP  RH WIND       PRES   REMARKS
INDIANAPOLIS   CLOUDY    28  19  69 NW17      30.32R WCI  16
-EAGLE CREEK   CLOUDY    28  20  71 NW13      30.32R WCI  17
KOKOMO *+      CLOUDY    27  19  74 NW18      30.30S WCI  13
MT COMFORT *+  PTSUNNY   30  16  55 W18G24    30.31R WCI  18
SHELBYVILLE    CLOUDY    34  22  61 NW14      30.30S WCI  25

$$

INZ033-034-041-042-049-050-058-059-272100-
EAST CENTRAL INDIANA

CITY           SKY/WX    TMP DP  RH WIND       PRES   REMARKS
MUNCIE         CLOUDY    29  22  75 W18G24    30.27S WCI  16

$$

INZ060-061-067>069-081>083-085>088-272100-
SOUTHWEST INDIANA

CITY           SKY/WX    TMP DP  RH WIND       PRES   REMARKS
EVANSVILLE     CLOUDY    31  23  72 W8        30.45R WCI  23
HUNTINGBURG *+ CLOUDY    28  19  69 NW13      30.42S WCI  18

$$

INZ062-063-066-070>080-084-089>092-272100-
SOUTH CENTRAL AND SOUTHEAST INDIANA

CITY           SKY/WX    TMP DP  RH WIND       PRES   REMARKS
BLOOMINGTON    CLOUDY    28  21  75 W6        30.35R WCI  22

$$




USA.gov is the U.S. government's official web portal to all federal, state and local government web resources and services.